Погода в Заречной Медле

Россия / Удмуртская Республика     57°37′21″N   53°55′35″E
темп.,
°C
ветер,
м/с
пор.,
м/с
влажн.,
%
обл.,
%
осадки,
мм/ч
давл.,
гПа
погр.,
м
25 января, пн
пн2501:000ююз3598100 0.0 1023183
04:00+1юз5999100 0.1 1024265
07:00+1юз51199100 0.4 1024305
10:00+1юз510100100 0.4 1025326
13:00+1юз71199100 0.1 1026388
16:000юз61197100 0.2 1027558
19:00−2юз61196100 0.4 1027506
22:00−3юз61095100 1.1 1028582
26 января, вт
вт2601:00−3юз51094100 0.1 1028600
04:00−3ююз61094100 0.1 1028523
07:00−6ююз5993100 0.1 1027521
10:00−6ююз51096100 0.1 1027380
13:00−3ююз61094100 0.1 1026583
16:00−3ююз61094100 0.2 1026627
19:00−3юз51094100 0.1 1026622
22:00−3ююз5994100 0.1 1026545
27 января, ср
ср2701:00−4ююз51095100 0.1 1026545
04:00−5ююз6995100 0.1 1025518
07:00−6ююз5994100 0.1 1026515
10:00−6ююз61192100 0.3 1026453
13:00−6ю61094100 0.1 1025500
16:00−6ююз71194100 0.3 1024521
19:00−7ююз61294100 0.2 1024443
22:00−7ююз61294100 0.3 1023452
28 января, чт
чт2801:00−8ююз61395100 0.1 1023373
04:00−8ююз71493100 0.1 1023377
07:00−9ююз71593100 0.0 1022364
10:00−8ююз81592100 0.0 1022392
13:00−5ююз71389100 0.0 1021449
16:00−5ююз61292100 0.0 1020438
19:00−6ююз71493100 0.0 1020362
22:00−7ююз61293100 0.0 1020319
29 января, пт
пт2901:00−8ююз51093100 0.0 1020256
04:00−9ю41094100 0.0 1020226
07:00−10ююв3595100 0.0 1020123
10:00−10ююв4893100 0.0 1019195
13:00−7ююв5891100 0.0 1018251
16:00−6ююв4992100 0.0 1016278
19:00−8юв4891100 0.0 1015200
22:00−7юв4988100 0.0 1014185